CW4171 Weather Reports


time (UTC)temp
C
wind
direction
speed
KPH
gust
KPH
rain 1hr
cm
rain 24hr
cm
rain mn
cm
humidity
%
barometer
mb
20190421195933 15 23 0.0 0.0 0.00 0.00 0.20 92 1002.5
20190421194949 15 48 0.0 0.0 0.00 0.00 0.20 92 1002.7
20190421192947 15 70 0.0 0.0 0.00 0.00 0.20 92 1002.3
20190421191943 15 34 0.0 0.0 0.00 0.00 0.20 92 1002.1
20190421185942 15 28 0.0 0.0 0.00 0.00 0.20 92 1002.1
20190421184942 15 61 0.0 0.0 0.00 0.00 0.20 92 1001.9
20190421183941 15 62 0.0 0.0 0.00 0.00 0.20 92 1001.6
20190421182942 15 5 0.0 0.0 0.00 0.00 0.18 91 1001.6
20190421180930 15 13 0.0 0.0 0.00 0.00 0.18 91 1001.6
20190421175931 15 63 0.0 0.0 0.00 0.00 0.18 91 1001.7
20190421174942 15 68 0.0 0.0 0.00 0.00 0.18 91 1001.7
20190421173957 15 41 0.0 0.0 0.00 0.00 0.18 92 1001.5
20190421172930 15 360 0.0 0.0 0.00 0.00 0.18 92 1001.6
20190421170953 15 43 0.0 0.0 0.00 0.00 0.15 92 1001.6
20190421165940 15 64 0.0 0.0 0.00 0.00 0.15 92 1001.6
20190421165012 15 24 0.0 0.0 0.00 0.00 0.15 92 1001.7
20190421164014 15 43 0.0 0.0 0.00 0.00 0.13 91 1001.7
20190421162951 15 38 0.0 0.0 0.00 0.00 0.13 91 1002.0
20190421161929 15 50 0.0 0.0 0.00 0.00 0.10 91 1002.0
20190421160947 15 36 0.0 0.0 0.00 0.00 0.10 91 1002.1
20190421155948 15 53 0.0 0.0 0.00 0.00 0.08 90 1002.1
20190421154930 15 9 0.0 0.0 0.00 0.00 0.08 90 1002.2
20190421153933 15 15 0.0 0.0 0.00 0.00 0.08 90 1002.3
20190421152932 15 18 0.0 0.0 0.00 0.00 0.08 90 1002.4
20190421150953 15 23 0.0 0.0 0.00 0.00 0.08 90 1002.4
20190421145935 15 32 0.0 0.0 0.00 0.00 0.08 90 1002.4
20190421144946 15 350 0.0 0.0 0.00 0.00 0.08 91 1002.6
20190421142947 15 19 0.0 0.0 0.00 0.00 0.08 91 1003.0
20190421140928 15 9 0.0 0.0 0.00 0.00 0.08 91 1003.2
20190421135951 15 26 0.0 0.0 0.00 0.00 0.05 90 1003.4
20190421134005 15 68 0.0 0.0 0.00 0.00 0.05 90 1003.7
20190421132952 15 71 0.0 0.0 0.00 0.00 0.05 90 1003.8
20190421131949 15 30 0.0 0.0 0.00 0.00 0.05 90 1003.9
20190421130939 15 34 0.0 0.0 0.00 0.00 0.05 90 1004.0
20190421125942 15 42 4.8 0.0 0.00 0.00 0.05 90 1004.2
20190421124935 15 25 11.3 0.0 0.00 0.00 0.05 89 1004.2
20190421123949 15 62 8.0 0.0 0.00 0.00 0.05 89 1004.2
20190421122946 15 9 11.3 0.0 0.00 0.00 0.05 89 1004.2
20190421121947 15 23 9.7 0.0 0.00 0.00 0.05 88 1004.4
20190421120946 15 28 12.9 0.0 0.00 0.00 0.05 88 1004.4
20190421115940 15 10 8.0 0.0 0.00 0.00 0.05 87 1004.3
20190421114935 15 26 8.0 0.0 0.00 0.00 0.05 85 1004.6
20190421113939 16 27 12.9 0.0 0.00 0.00 0.05 83 1004.8
20190421112933 16 61 16.1 0.0 0.00 0.00 0.05 83 1004.9
20190421111930 16 34 16.1 0.0 0.00 0.00 0.05 82 1005.2
20190421110943 16 18 12.9 0.0 0.00 0.00 0.05 83 1005.4
20190421105933 16 28 12.9 0.0 0.00 0.00 0.05 83 1005.4
20190421103958 15 17 9.7 0.0 0.00 0.00 0.05 86 1005.8
20190421102948 15 5 9.7 0.0 0.00 0.00 0.05 86 1005.8
20190421101938 15 40 11.3 0.0 0.00 0.00 0.05 86 1006.1
20190421100935 15 47 9.7 0.0 0.00 0.00 0.05 87 1005.9
20190421095947 15 25 12.9 0.0 0.00 0.00 0.05 87 1006.0
20190421094944 15 52 4.8 0.0 0.00 0.00 0.05 87 1006.0
20190421093934 15 9 0.0 0.0 0.00 0.00 0.05 88 1006.1
20190421092937 15 41 0.0 0.0 0.00 0.00 0.05 88 1006.2
20190421091955 15 55 0.0 0.0 0.00 0.00 0.05 89 1006.2
20190421085940 14 28 0.0 0.0 0.00 0.00 0.05 90 1006.3
20190421084934 14 13 0.0 0.0 0.00 0.00 0.05 90 1006.3
20190421083934 14 55 0.0 0.0 0.00 0.00 0.05 90 1006.4
20190421082935 14 36 0.0 0.0 0.00 0.00 0.05 90 1006.5
20190421081935 14 28 0.0 0.0 0.00 0.00 0.05 90 1006.6
20190421080936 14 40 0.0 0.0 0.00 0.00 0.05 90 1006.6
20190421075949 14 59 0.0 0.0 0.00 0.00 0.05 91 1006.7
20190421074931 14 15 0.0 0.0 0.00 0.00 0.05 91 1006.8
20190421073955 14 351 0.0 0.0 0.00 0.00 0.05 91 1006.9
20190421072949 14 30 0.0 0.0 0.00 0.00 0.05 91 1006.9
20190421071943 14 60 0.0 0.0 0.00 0.00 0.05 91 1007.0
20190421070944 14 39 0.0 0.0 0.00 0.00 0.05 91 1006.9
20190421065945 14 37 0.0 0.0 0.00 0.00 0.05 91 1006.9
20190421064931 14 14 0.0 0.0 0.00 0.00 0.05 91 1007.0
20190421063932 14 46 0.0 0.0 0.00 0.00 0.05 91 1007.1
20190421062932 14 56 0.0 0.0 0.00 0.00 0.05 90 1007.3
20190421061935 14 60 0.0 0.0 0.00 0.00 0.05 90 1007.3
20190421060943 14 11 0.0 0.0 0.00 0.00 0.05 90 1007.5
20190421060020 14 34 0.0 0.0 0.00 0.00 0.03 90 1007.6
20190421054940 14 34 0.0 0.0 0.00 0.00 0.03 90 1007.6
20190421053943 14 15 0.0 0.0 0.00 0.00 0.03 89 1007.5
20190421052931 14 17 0.0 0.0 0.00 0.00 0.03 89 1007.4
20190421051943 14 45 0.0 0.0 0.00 0.00 0.03 89 1007.3
20190421050943 14 46 0.0 0.0 0.00 0.00 0.03 89 1007.3
20190421045946 14 350 0.0 0.0 0.00 0.00 0.00 89 1007.2
20190421045021 14 32 0.0 0.0 0.00 0.00 0.00 89 1007.2
20190421042927 13 18 0.0 0.0 0.00 0.00 0.00 89 1007.5
20190421041940 13 53 1.6 0.0 0.00 0.00 0.00 89 1007.7
20190421040941 13 42 3.2 0.0 0.00 0.00 0.00 89 1007.6
20190421040004 13 71 3.2 0.0 0.00 0.00 0.00 88 1007.8
20190421034932 13 44 9.7 0.0 0.00 0.00 0.00 88 1008.0
20190421033930 13 24 4.8 0.0 0.00 0.00 0.00 88 1008.1
20190421032936 13 75 4.8 0.0 0.00 0.00 0.00 87 1008.2
20190421031938 14 119 1.6 0.0 0.00 0.00 0.00 87 1008.2
20190421030935 13 153 3.2 0.0 0.00 0.00 0.00 87 1008.4
20190421025940 13 31 4.8 0.0 0.00 0.00 0.00 87 1008.4
20190421024941 14 30 9.7 0.0 0.00 0.00 0.00 86 1008.5
20190421023946 14 41 12.9 0.0 0.00 0.00 0.00 84 1008.6
20190421022930 15 49 11.3 0.0 0.00 0.00 0.00 82 1008.6
20190421021931 15 15 11.3 0.0 0.00 0.00 0.00 82 1008.6
20190421020932 14 40 11.3 0.0 0.00 0.00 0.00 83 1008.7
20190421020044 14 53 12.9 0.0 0.00 0.00 0.00 84 1008.8
20190421014932 14 26 11.3 0.0 0.00 0.00 0.00 84 1008.9
20190421014011 14 33 6.4 0.0 0.00 0.00 0.00 84 1008.9
20190421012944 14 50 4.8 0.0 0.00 0.00 0.00 84 1008.9
20190421011946 14 27 6.4 0.0 0.00 0.00 0.00 84 1009.3
20190421010946 14 50 4.8 0.0 0.00 0.00 0.00 84 1009.5
20190421005930 14 71 4.8 0.0 0.00 0.00 0.00 83 1009.7
20190421004932 14 31 3.2 0.0 0.00 0.00 0.00 84 1009.7
20190421003931 14 58 1.6 0.0 0.00 0.00 0.00 84 1010.0
20190421002933 14 60 4.8 0.0 0.00 0.00 0.00 83 1010.2
20190421001938 14 36 3.2 0.0 0.00 0.00 0.00 83 1010.4
20190421000938 15 40 8.0 0.0 0.00 0.00 0.00 82 1010.5
20190420235933 14 35 9.7 0.0 0.00 0.00 0.00 82 1010.6
20190420234950 14 32 11.3 0.0 0.00 0.00 0.20 83 1010.6
20190420233945 14 44 9.7 0.0 0.00 0.00 0.20 83 1010.7
20190420232948 14 22 11.3 0.0 0.00 0.00 0.20 83 1010.9
20190420231945 14 53 11.3 0.0 0.00 0.00 0.20 84 1011.1
20190420230946 14 321 9.7 0.0 0.00 0.00 0.20 84 1011.4
20190420225945 14 15 12.9 0.0 0.00 0.00 0.20 84 1011.4
20190420225016 14 37 12.9 0.0 0.00 0.00 0.20 85 1011.4
20190420224012 14 41 11.3 0.0 0.00 0.00 0.20 85 1011.5
20190420222946 14 33 14.5 0.0 0.00 0.00 0.20 85 1011.7
20190420221948 14 45 12.9 0.0 0.00 0.00 0.20 85 1012.0
20190420220947 14 344 9.7 0.0 0.00 0.00 0.20 85 1012.2
20190420215926 14 49 9.7 0.0 0.00 0.00 0.20 85 1012.2
20190420214939 14 48 9.7 0.0 0.00 0.00 0.20 85 1012.3
20190420213942 14 346 8.0 0.0 0.00 0.00 0.20 85 1012.5
20190420212944 14 22 4.8 0.0 0.00 0.00 0.20 85 1012.4
20190420211947 14 355 8.0 0.0 0.00 0.00 0.20 85 1012.4
20190420210934 14 26 9.7 0.0 0.00 0.00 0.20 86 1012.5
20190420205949 14 41 11.3 0.0 0.00 0.00 0.20 86 1012.5
20190420204946 14 25 6.4 0.0 0.00 0.00 0.20 85 1012.5
20190420203937 14 16 11.3 0.0 0.00 0.00 0.20 85 1012.6
20190420202934 14 5 8.0 0.0 0.00 0.00 0.20 85 1012.5
20190420201939 14 30 4.8 0.0 0.00 0.00 0.20 84 1012.5
20190420200939 15 65 8.0 0.0 0.00 0.00 0.20 84 1012.4